Weather in Nesterovskaya

Russia / Republic of Ingushetia     43°14′17″N   45°02′56″E
temp.,
°C
wind,
m/s
gust,
m/s
humid.,
%
clouds,
%
prec.,
mm/h
press.,
hPa
HPBL,
m
18 may, tue
tue1800:00+15wsw51290100 0.4 1009369
03:00+15w41094100 0.9 1009553
06:00+15wnw3894100 0.3 1010515
09:00+16wnw358789 0.6 1011665
12:00+16w128189 0.1 1012580
15:00+20nnw126581 0.2 10121077
18:00+20ene11705 0.0 1012320
21:00+14s11860 0.0 101312
19 may, wed
wed1900:00+13ssw21890 0.0 101214
03:00+12sse11870 0.0 101011
06:00+14se13800 0.0 1010102
09:00+20e46611 0.0 1008554
12:00+24ene335196 0.0 1008956
15:00+25nnw445052 0.0 10101800
18:00+15wnw5997100 3.4 1015681
21:00+13w2595100 6.2 1018284
20 may, thu
thu2000:00+13ssw1293100 0.7 101841
03:00+13se119083 0.8 101713
06:00+12e27925 0.0 1017265
09:00+17e69560 0.0 10171066
12:00+21e67480 0.0 10151156
15:00+22e56490 0.0 10141181
18:00+20e48650 0.0 1015443
21:00+13ese22770 0.0 101625
21 may, fri
fri2100:00+12ssw21800 0.0 101513
03:00+12sse11780 0.0 101411
06:00+15sse11720 0.0 101335
09:00+21ene33570 0.0 1012357
12:00+25ene34525 0.0 1011610
15:00+28e34440 0.0 1010790
18:00+24ne22682 0.0 101074
21:00+17sse11814 0.0 101011
22 may, sat
sat2200:00+17sw2273100 0.0 101016
03:00+17ssw116264 0.0 100912
06:00+18se1164100 0.0 100814
09:00+25ene22495 0.0 1007274
12:00+29ene454766 0.0 1006643
15:00+30ne23415 0.0 1005824
18:00+26n11664 0.0 100511
21:00+21wsw3476100 0.0 100763